Regional Weather Roundup
Issued by NWS Wakefield, VA

Home | Current Version | Previous Version | Graphics & Text | Print | Product List | Glossary On
Versions: 1 2 3 4 5 6 7 8 9 10 11 12 13 14 15 16 17 18 19 20 21 22 23 24 25 26 27 28 29 30 31 32 33 34 35 36 37 38 39 40 41 42 43 44 45 46 47 48 49 50
000
ASUS41 KAKQ 310710
RWRAKQ

REGIONAL WEATHER ROUNDUP
NATIONAL WEATHER SERVICE WAKEFIELD VA
200 AM EST SAT JAN 31 2015

Note: "fair" indicates few or no clouds below 12,000 feet with no
significant weather and/or obstructions to visibility. * = Denotes
station may not report precipitation (e.g., rain,snow,etc.),
thunder or fog.

VAZ042-051-052>054-056-310800-
NORTHERN VIRGINIA

CITY           SKY/WX    TMP DP  RH WIND       PRES   REMARKS
WASH NATIONAL  CLEAR     22   3  44 NW18G28   30.31R WCI   7
DULLES         CLEAR     18   2  49 NW16G26   30.29R WCI   3
FORT BELVOIR   CLEAR     20   2  46 NW17G25   30.31R WCI   5
QUANTICO       CLEAR     21   4  47 N9        30.33R
FREDERICKSBRG* CLEAR     23   7  49 N6        30.30R
STAFFORD*      CLEAR     20   4  49 CALM      30.34R
WARRENTON      CLEAR     22  10  59 NW14G24   30.28R WCI   9
CULPEPER*      CLEAR     19   7  58 CALM      30.29R
MANASSAS*      CLEAR     19   9  63 NW15      30.30R WCI   5
LEESBURG*      CLEAR     19   9  63 NW14G22   30.30S WCI   6
WINCHESTER     CLEAR     19   3  49 NW7G20    30.29S
FRONT ROYAL*   FAIR      19   5  53 NE5       30.28R
LURAY*         FAIR      23   7  50 SW6       30.27R
$$

VAZ048-049-060>072-079>083-310800-
CENTRAL AND SOUTH CENTRAL VIRGINIA

CITY           SKY/WX    TMP DP  RH WIND       PRES   REMARKS
RICHMOND       CLEAR     24   8  50 N9        30.28R
CHESTERFIELD*    N/A    N/A N/A N/A N7        30.28S
PETERSBURG*    CLEAR     25  10  54 NW3       30.29R
HANOVER        CLEAR     22   7  52 CALM      30.30R
TAPPAHANNOCK*  CLEAR     24   1  37 NW6G17    30.29R
QUINTON*       FAIR      23   7  51 N5        30.29R
CHARLOTTSVILLE CLEAR     23   3  42 NW6       30.26R
GORDONSVILLE*  FAIR      19   7  61 CALM      30.27R
ORANGE*        CLEAR     18  10  73 CALM      30.29R
LOUISA*        CLEAR     18   9  68 CALM      30.25S
BUMPASS*       FAIR      23   6  49 N7        30.27S
FARMVILLE*     CLEAR     23   9  55 CALM      30.28R
CREWE*         FAIR      22   9  58 CALM      30.27R
FORT PICKETT*  FAIR      24   8  52 W3        30.27R
CHASE CITY*    FAIR      27  13  57 CALM      30.29R
CLARKSVILLE*   FAIR      27  10  50 NW5       30.28S
SOUTH HILL*    CLEAR     25   9  49 W3        30.34R
LAWRENCEVILLE* FAIR      24  10  55 CALM      30.27R
EMPORIA*       CLEAR     21  10  63 CALM      30.30S
$$

VAZ088>098-310800-
SOUTHEAST VIRGINIA

CITY           SKY/WX    TMP DP  RH WIND       PRES   REMARKS
NORFOLK        CLEAR     26   6  42 NW9       30.25R
VIRGINIA BEACH CLEAR     28   6  39 NW26G37   30.23R WCI  13
NORFOLK NAVAL  CLEAR     29   6  38 NW22      30.27R WCI  15
WEST POINT*    CLEAR     26   3  37 NW7       30.30R
SALUDA*        FAIR      24   8  49 NW18G32   30.26R WCI  10
NEWPORT NEWS   CLEAR     27   6  41 NW9       30.27R
LANGLEY AFB    CLEAR     25   6  45 NW13G21   30.26R WCI  13
FORT EUSTIS    CLEAR     26  10  50 N13G21    30.25R WCI  15
WILLIAMSBURG*    N/A     27  10  50 N8        30.28R
HR EXEC AP*    FAIR      27   7  43 NW6       30.28S
FRANKLIN*      CLEAR     26  10  50 NW3       30.28R
WAKEFIELD      CLEAR     25   9  50 CALM      30.28R
$$

VAZ020-022-025-037-045-310800-
WEST CENTRAL AND SOUTHWEST VIRGINIA

CITY           SKY/WX    TMP DP  RH WIND       PRES   REMARKS
STAUNTON*      CLEAR     19   5  54 CALM      30.27R
WAYNESBORO*    FAIR      19   2  47 NW7       30.23R
HOT SPRINGS VA CLEAR     10   3  74 W21G26    30.06R WCI  -9
LYNCHBURG      CLEAR     19   8  62 W3        30.28R
DANVILLE       CLEAR     24   9  52 S3        30.32R
SOUTH BOSTON*  FAIR      26   8  46 W3        30.30S
MARTINSVILLE   CLEAR     23   8  53 CALM      30.31S
ROANOKE        CLEAR     24   3  40 NW10      30.30S WCI  14
BLACKSBURG     CLEAR     18   8  65 W9        30.29S
DUBLIN*        CLEAR     21  11  65 CALM      30.28R
MARION*        CLEAR     21  10  61 W14       30.29R WCI   8
HILLSVILLE*    CLEAR     20   8  60 NW12      30.22R WCI   8
RICHLANDS*     FAIR      17   8  65 W3        30.30R
WISE*          CLEAR     19  12  73 CALM      30.30S
ABINGDON*      CLEAR     25  12  57 CALM      30.33S
$$

MDZ021>025-VAZ099-100-310800-
SOUTHERN MARYLAND AND THE DELMARVA PENINSULA

CITY           SKY/WX    TMP DP  RH WIND       PRES   REMARKS
PATUXENT RIVER CLEAR     22   5  48 NW25G36   30.25R WCI   5
BAY BRIDGE APT   N/A     21   3  45 NW20G28   30.26R WCI   6
LEONARDTOWN    CLEAR     21   3  45 W10G18    30.27R WCI  10
DOVER          CLEAR     19   3  49 NW20G30   30.20R WCI   3
GEORGETOWN     CLEAR     21   4  47 NW8G22    30.19R
EASTON         CLEAR     22   6  49 NW20G29   30.27R WCI   7
CAMBRIDGE      CLEAR     25   3  39 NW18G26   30.23R WCI  11
SALISBURY      FAIR      24   5  44 NW20G35   30.20R WCI  10
OCEAN CITY     CLEAR     22   6  50 NW23G31   30.16R WCI   6
WALLOPS ISLAND CLEAR     23   7  50 NW23G31   30.19R WCI   7
ACCOMACK*      CLEAR     25   9  50 NW22G36   30.22R WCI  10
$$

NCZ012>017-030>032-310800-
NORTH CENTRAL AND EASTERN NORTH CAROLINA

CITY           SKY/WX    TMP DP  RH WIND       PRES   REMARKS
ROANOKE RAPIDS FAIR      28  12  50 NW3       30.29R
RALEIGH        PTCLDY    26   8  46 CALM      30.31R
ELIZABETH CITY CLEAR     28  11  48 NW13      30.26R WCI  17
AHOSKIE*       CLEAR     27  10  49 CALM      30.29R
EDENTON*       CLEAR     30  11  45 NW9       30.26R
CURRITUCK*     CLEAR     29   7  39 NW9G18    30.25R
KILL DEVIL HLS CLEAR     30  11  46 NW9G22    30.21R
MANTEO         CLEAR     30   9  40 NW17G25   30.23S WCI  18
CAPE HATTERAS  CLEAR     33  15  47 NW15G28   30.22R WCI  23
TARBORO*       FAIR      28  13  53 W5        30.30S
GOLDSBORO      CLEAR     38  12  34 NW14G23   30.21R
WASHINGTON     CLEAR     29  11  46 CALM      30.29R
GREENVILLE     CLEAR     30  12  47 NW3       30.30S
NEW BERN       CLEAR     32  12  43 NW7       30.29S
WILMINGTON     CLEAR     32  12  43 N12       30.29S WCI  23
$$

VAZ048-310800-
ELSEWHERE

CITY           SKY/WX    TMP DP  RH WIND       PRES   REMARKS
HARRISBURG PA  CLEAR     14   0  53 NW21G29   30.25R WCI  -4
BALTIMORE      CLEAR     19   1  45 NW17G24   30.26R WCI   4
ANNAPOLIS      CLEAR     21   4  47 NW15G29   30.25R WCI   8
ANDREWS AFB    CLEAR     19   3  50 NW23G32   30.26R WCI   2
PHILADELPHIA   CLEAR     18  -1  43 NW20G32   30.18R WCI   2
HENDERSON NC   CLEAR     26   8  44 CALM      30.29R
GREENSBORO     CLEAR     22  10  60 CALM      30.29R
ROCKY MOUNT      N/A     28  11  48 NW6       30.30S
$$

VAZ100-310800-
MARINE

STATION/POSITION TIME  TEMP    WIND        PRES    WAVE   SWELL
                       AIR SEA DIR/SP/G            HT/PER HT/PER
                 (UTC) (F)     (DEG/KT/KT) (MB)    (FT/S) (FT/S)
BRANDYWINE LGT   0700          330/ 23/ 31 1021.1R
CAPE MAY NJ      0700   22 34              1020.3R
LEWES DE         0700          320/ 32/ 41 1021.5R
15NM E FENWICK I 0700   25 39              1019.1R   8/ 7
OCEAN-CITY-INLET 0700          330/ 18/ 25 1020.9R
WACHAPREAGUE VA  0700   24 36  290/  6/ 14 1022.8R
THOMAS POINT MD  0700   21 35  320/ 20/ 23 1025.4R
GOOSES REEF MD   0700   23     VRB 23/ 29  1023.0R
COVE POINT MD    0700   21     340/ 26/ 31 1023.9R
SOLOMONS ISLAND  0700      36                N/A
BISHOPS HEAD MD  0700   23 30  330/ 23/ 28 1023.6R
PINEY POINT MD   0700          340/ 32/ 35   N/A
POTOMAC MD       0700   25     330/ 23/ 29 1023.0R
CAMBRIDGE MD     0700   23 34  320/ 24/ 29 1023.5R
LEWISETTA VA     0700          320/ 20/ 30 1025.1R
RAPPAHANNOCK LGT 0700          310/ 29/ 32 1024.1R
STINGRAY PT      0700   26     320/ 21/ 27 1024.4R
YORK RVR RNG VA  0700   26     330/ 25/ 31 1024.0R
YORKTOWN VA      0700   27 38  330/ 20/ 30 1024.6R
JAMESTOWN VA     0700   25     360/ 10/ 16   N/A
DOMINION TERM VA 0700   28     350/  6/ 14 1024.6R
KIPTOPEKE VA     0700      41  320/ 25/ 36   N/A
CHES BAY BRIDGE  0700          310/ 27/ 33 1023.9R
CAPE HENRY VA    0700   27     310/ 29/ 34 1022.6R
CHESAPEAKE LGHT  0600   28     320/ 34/ 38 1022.8R
WILLOUBY STN VA  0700   27     310/ 19/ 23 1024.8R
S CRANEY ISL VA  0700          330/ 15/ 21 1024.3R
CAPE HENRY BUOY  0700      42                N/A     7/ 5
1ST LANDING BUOY 0700   28     320/ 27/ 33 1023.1S
CAPE CHARLES BUO 0700      39                N/A     6/ 4   2/11
OFFSHORE WE BUOY 0700      43                N/A     9/ 6   2/11
64NM E OF VA BCH 0700   32 48  330/ 31/ 37 1020.0R  11/ 8   2/15
DUCK PIER NC     0700   30 42  330/ 29/ 35 1022.0R
44100 DUCK FRF   0700      44                N/A     8/ 7
44056 DUCK FRF   0700      43                N/A     6/ 7
OREGON INLET NC  0700   31 41  310/ 18/ 25 1022.9R
HATTERAS NC      0700   34 43  320/ 25/ 30 1023.5R


USA.gov is the U.S. government's official web portal to all federal, state and local government web resources and services.